LiveATC.Net - Listen to live air traffic control over the Internet!


ICAO: KVGT  IATA: VGT   Airport: North Las Vegas Airport
City: Las Vegas   State/Province: Nevada
Country: United States   Continent: North America
KVGT METAR Weather: KVGT 231953Z 32015KT 10SM CLR 11/M14 A2993 RMK AO2 SLP154 T01111139
KVGT Flight Activity (FlightAware)
KVGT Airport Info   (AirNav) (iFlightPlanner)
KVGT VFR Sectional Chart   (iFlightPlanner) 
KVGT IFR Low Chart   (iFlightPlanner) 
KVGT Tower
Feed Status: DOWN
Last heard on: 2017-02-16 14:55:03 (7 days 5 hours 50 minutes ago)
KVGT Tower Audio Archives
FacilityFrequency
North Las Vegas Tower125.700


NOTICE

Unauthorized use prohibited. See LiveATC.net Terms of Service


Find LiveATC Audio Streams


Airport/ARTCC Code

Frequency Search
(e.g., 124.400, 128.75)
Site-wide search
 


Browse LiveATC Feeds
LiveATC Coverage Map
Top 50 LiveATC Feeds
Bad Weather Areas

LiveATC FAQ
Offer a LiveATC Feed
Contact LiveATC.net
Press Inquiries

LiveATC on iPhone
LiveATC on Android

Windows Phone
Windows 8/10

LiveATC Mobile
(Mobile browser)

ATC Audio Archives
Interesting Recordings

LiveATC Forums


Home Page
About LiveATC.net
Make a Donation
LiveATC Store

Terms of Use
Privacy Policy

Canadian Air Freqs

AIRMETs/SIGMETs

FAA Airport Status
Nat'l Airspace Status
Arrival Demand Charts


Server Software By:
Icecast.org
Liquidsoap